This is the latest recevied weather packets stored in our database for station/object 4S6DRJ-13. If no packets are shown the sender has not sent any weather packets the latest 10 day(s).
| Time | Temp. | Humidity | Pressure | Rain* | Wind** | Luminosity | Snow |
|---|---|---|---|---|---|---|---|
| 1788053307 | 28.33° C | 82% | 1009.8 hPa | 0 mm | 0.89 m/s, 220° | 141 W/m² | - |
| 1788053245 | 28.33° C | 82% | 1009.7 hPa | 0 mm | 0.89 m/s, 260° | 134 W/m² | - |
| 1788053184 | 27.78° C | 82% | 1009.6 hPa | 0 mm | 0.45 m/s, 276° | 129 W/m² | - |
| 1788053123 | 27.78° C | 82% | 1009.6 hPa | 0 mm | 1.34 m/s, 228° | 123 W/m² | - |
| 1788053062 | 27.78° C | 82% | 1009.7 hPa | 0 mm | 0 m/s | 117 W/m² | - |
| 1788053001 | 27.78° C | 82% | 1009.5 hPa | 0 mm | 0.89 m/s, 228° | 113 W/m² | - |
| 1788052940 | 27.78° C | 82% | 1009.6 hPa | 0 mm | 0.89 m/s, 156° | 106 W/m² | - |
| 1788052879 | 27.78° C | 82% | 1009.7 hPa | 0 mm | 1.34 m/s, 211° | 104 W/m² | - |
| 1788052818 | 27.78° C | 83% | 1009.6 hPa | 0 mm | 0 m/s | 102 W/m² | - |
| 1788052757 | 27.78° C | 83% | 1009.5 hPa | 0 mm | 1.34 m/s, 187° | 100 W/m² | - |
| 1788052696 | 27.78° C | 83% | 1009.7 hPa | 0 mm | 1.34 m/s, 283° | 96 W/m² | - |
| 1788052635 | 27.78° C | 83% | 1009.6 hPa | 0 mm | 1.79 m/s, 271° | 92 W/m² | - |
| 1788052574 | 27.78° C | 84% | 1009.5 hPa | 0 mm | 0.89 m/s, 258° | 89 W/m² | - |
| 1788052513 | 27.78° C | 84% | 1009.7 hPa | 0 mm | 0.89 m/s, 221° | 87 W/m² | - |
| 1788052452 | 27.78° C | 84% | 1009.7 hPa | 0 mm | 0.89 m/s, 227° | 82 W/m² | - |
| 1788052391 | 27.78° C | 84% | 1009.5 hPa | 0 mm | 1.34 m/s, 241° | 77 W/m² | - |
| 1788052330 | 27.78° C | 84% | 1009.6 hPa | 0 mm | 0.89 m/s, 223° | 72 W/m² | - |
| 1788052270 | 27.78° C | 84% | 1009.7 hPa | 0 mm | 1.34 m/s, 254° | 68 W/m² | - |
| 1788052208 | 27.78° C | 84% | 1009.6 hPa | 0 mm | 0.89 m/s, 212° | 64 W/m² | - |
| 1788052147 | 27.78° C | 84% | 1009.7 hPa | 0 mm | 0.45 m/s, 210° | 60 W/m² | - |
| 1788052086 | 27.78° C | 84% | 1009.5 hPa | 0 mm | 0.45 m/s, 214° | 57 W/m² | - |
| 1788052025 | 27.78° C | 84% | 1009.6 hPa | 0 mm | 0.45 m/s, 224° | 54 W/m² | - |
| 1788051964 | 27.78° C | 84% | 1009.7 hPa | 0 mm | 0.45 m/s, 187° | 51 W/m² | - |
| 1788051903 | 27.78° C | 84% | 1009.6 hPa | 0 mm | 0.45 m/s, 212° | 49 W/m² | - |
| 1788051842 | 27.78° C | 84% | 1009.6 hPa | 0 mm | 0.45 m/s, 234° | 47 W/m² | - |
* Rain latest hour (hover to see other rain measurements)
** Current wind speed in m/s (hover to see current wind gust speed)